sat.trackr.live / text

‹ back to catalog

STARLINK-34350

NORAD 64276 · 2025-120W

PAYLOAD ACTIVE UNKNOWN

§ Identity

Operator
Country
US
Launch date
2025-06-04
Launch site
AFWTR
Launch vehicle
Mass (kg)
RCS (m²)

Purposes: comms

External: N2YO · Heavens-Above · Gunter

§ Orbital elements

Epoch: 2026-05-25T04:57:50.471424Z

Period
93.79 min
Inclination
53.1594°
Eccentricity
0.0001444
Mean motion
15.35405363 rev/d
Perigee alt
458.7 km
Apogee alt
460.7 km
Semi-major
6,837.9 km
B*
6.9586e-4
RAAN
118.9775°
Arg perigee
87.8856°
Mean anomaly
272.2312°
Rev number
5,566

§ Raw data

STARLINK-343501 64276U 25120W   26145.20683416  .00023974  00000+0  69586-3 0  99942 64276  53.1594 118.9775 0001444  87.8856 272.2312 15.35405363 55663

JSON: /api/v1/satellites/64276 · /tle

For live sub-satellite position, see the globe view (requires WebGL).

§ Visibility from observer

Set your observer location to see the next 7 days of passes ≥ 10°. The values pass through the URL so the page stays shareable.

No JS? Fill the form by hand. The geolocation button needs JavaScript.